Location: Vancouver
(49.2500°N, 123.1330°W)
Time: 03:19:36
(UTC-08:00)

S-56A Canister/Altair - Visible Passes

Search period start: 23 November 2017 00:00
Search period end: 03 December 2017 00:00
Orbit: 634 x 2499 km, 38.9° (Epoch: 22 November)

Date Brightness Start Highest point End Pass type
(mag) Time Alt. Az. Time Alt. Az. Time Alt. Az.
23 Nov 11.0 02:23:14 26° SSE 02:24:42 27° SE 02:35:51 10° E visible
23 Nov 10.5 04:20:43 26° SW 04:29:14 47° SSE 04:42:17 10° E visible
23 Nov 10.4 06:20:15 10° WSW 06:34:44 55° S 06:46:51 10° ESE visible
24 Nov 11.1 01:52:48 24° SE 01:52:48 24° SE 02:02:16 10° E visible
24 Nov 10.5 03:50:15 34° SSW 03:56:00 45° SSE 04:09:14 10° E visible
24 Nov 10.4 05:47:44 12° WSW 06:01:29 55° S 06:14:09 10° ESE visible
25 Nov 11.3 01:22:16 19° ESE 01:22:16 19° ESE 01:28:29 10° E visible
25 Nov 10.4 03:19:43 39° S 03:22:47 43° SSE 03:36:06 10° E visible
25 Nov 10.3 05:17:11 20° WSW 05:28:12 56° S 05:41:19 10° ESE visible
26 Nov 11.5 00:51:40 14° ESE 00:51:40 14° ESE 00:54:27 10° E visible
26 Nov 10.5 02:49:07 40° SSE 02:49:36 40° SSE 03:02:51 10° E visible
26 Nov 10.3 04:46:33 29° SW 04:54:53 55° S 05:08:26 10° ESE visible
26 Nov 10.5 06:46:13 10° W 07:00:26 50° SSW 07:12:27 10° SE visible
27 Nov 10.7 02:18:26 36° SE 02:18:26 36° SE 02:29:31 10° E visible
27 Nov 10.3 04:15:53 39° SW 04:21:34 54° S 04:35:26 10° E visible
27 Nov 10.4 06:13:19 11° W 06:27:13 52° SSW 06:39:49 10° ESE visible
28 Nov 10.9 01:47:42 30° ESE 01:47:42 30° ESE 01:56:04 10° E visible
28 Nov 10.1 03:45:09 48° SSW 03:48:15 53° SSE 04:02:19 10° E visible
28 Nov 10.3 05:42:35 19° WSW 05:53:57 54° S 06:07:04 10° ESE visible
29 Nov 11.2 01:16:57 22° ESE 01:16:57 22° ESE 01:22:30 10° E visible
29 Nov 10.1 03:14:23 51° S 03:14:59 51° SSE 03:29:08 10° E visible
29 Nov 10.3 05:11:49 27° WSW 05:20:38 55° S 05:34:15 10° ESE visible
30 Nov 11.5 00:46:09 16° E 00:46:09 16° E 00:48:49 10° E visible
30 Nov 10.3 02:43:36 47° SE 02:43:36 47° SE 02:55:52 10° E visible
30 Nov 10.2 04:41:02 37° WSW 04:47:19 56° S 05:01:18 10° ESE visible
30 Nov 10.6 06:39:08 10° W 06:52:38 42° SSW 07:04:47 10° SE visible
01 Dec 10.6 02:12:47 39° ESE 02:12:47 39° ESE 02:22:31 10° E visible
01 Dec 10.1 04:10:14 47° SW 04:13:59 56° S 04:28:15 10° ESE visible
01 Dec 10.5 06:07:39 15° W 06:19:27 45° SSW 06:32:11 10° SE visible
02 Dec 10.9 01:41:59 30° ESE 01:41:59 30° ESE 01:49:05 10° E visible
02 Dec 10.0 03:39:24 55° SSW 03:40:40 56° S 03:55:07 10° ESE visible
02 Dec 10.4 05:36:51 23° WSW 05:46:14 47° SSW 05:59:28 10° SE visible
